Погода в Вараксино

Россия / Удмуртская Республика     56°51′57″N   53°05′15″E
темп.,
°C
ветер,
м/с
пор.,
м/с
влажн.,
%
обл.,
%
осадки,
мм/ч
давл.,
гПа
погр.,
м
11 апреля, вс
вс1101:00+3юв2499100 2.9 102571
04:00+3ссз1199100 10.4 102612
07:00+3юз1199100 6.5 102711
10:00+4ююв23100100 6.8 102795
13:00+4з1199100 0.1 102915
16:00+3сз2399100 1.3 103162
19:00+3ссз2398100 0.6 103349
22:00+3с2397100 0.6 103439
12 апреля, пн
пн1201:00+2с2294100 0.0 103537
04:00+1ссв2489100 0.0 103764
07:00+2св2585100 0.0 1038111
10:00+6всв3778100 0.0 1039272
13:00+9всв4670100 0.0 1039578
16:00+10в356682 0.0 1038707
19:00+7всв3482100 0.0 103851
22:00+5в3688100 0.0 103996
13 апреля, вт
вт1301:00+4вюв348965 0.0 103860
04:00+5вюв2587100 0.0 103893
07:00+5вюв2587100 0.0 1037113
10:00+9ююв247494 0.0 1036270
13:00+15ю356271 0.0 1033742
16:00+16ююз45537 0.0 1032947
19:00+13ю236683 0.0 103125
22:00+9ю337075 0.0 103023
14 апреля, ср
ср1401:00+7ююз336892 0.0 103031
04:00+6ююз337056 0.0 102926
07:00+6ююз257251 0.0 1029111
10:00+13юз465419 0.0 1027446
13:00+16юз46448 0.0 10261244
16:00+17зюз454158 0.0 10251368
19:00+13юз346183 0.0 102449
22:00+10юз347282 0.0 102354
15 апреля, чт
чт1501:00+8юз337636 0.0 102235
04:00+7юз33795 0.0 102131
07:00+8юз257579 0.0 1020118
10:00+13юз4654100 0.0 1019447
13:00+16юз5643100 0.0 10171133
16:00+17зюз5642100 0.0 10151392
19:00+13юз3661100 0.0 101493
22:00+10юз3771100 0.0 1012108